When you browse on this site, cookies collect data to enhance your experience and personalize the content and advertising you see.
Visit our Privacy Policy to learn more. By continuing to use the site, you agree to this use of cookies and data.
  • In Spain
  • List of Countries
  • For 7 days
  • Water Temperature
  • Weather Map
  • Weather Widgets
  • user-avatar
    Login

    Hourly Weather Nacimiento

    Today, 28 January, Tuesday

    Time Temperature Precipitation Wind Pressure Humidity
    00:00 +18°C° 0 mm 3 mps 755 mmHg 78%
    01:00 +17°C° 0 mm 3 mps 755 mmHg 83%
    02:00 +17°C° 0 mm 2 mps 755 mmHg 85%
    03:00 +16°C° 0 mm 2 mps 755 mmHg 87%
    04:00 +16°C° 0 mm 2 mps 755 mmHg 90%
    05:00 +19°C° 0 mm 1 mps 755 mmHg 83%
    06:00 +21°C° 0 mm 1 mps 754 mmHg 76%
    07:00 +22°C° 0 mm 1 mps 754 mmHg 69%
    08:00 +25°C° 0 mm 1 mps 754 mmHg 61%
    09:00 +28°C° 0 mm 1 mps 755 mmHg 53%
    10:00 +30°C° 0 mm 1 mps 755 mmHg 45%
    11:00 +30°C° 0 mm 2 mps 755 mmHg 42%
    12:00 +31°C° 0 mm 2 mps 755 mmHg 38%
    13:00 +31°C° 0 mm 3 mps 755 mmHg 35%
    14:00 +31°C° 0 mm 3 mps 755 mmHg 32%
    15:00 +30°C° 0 mm 3 mps 755 mmHg 30%
    16:00 +30°C° 0 mm 3 mps 754 mmHg 27%
    17:00 +27°C° 0 mm 4 mps 755 mmHg 32%
    18:00 +23°C° 0 mm 4 mps 755 mmHg 37%
    19:00 +20°C° 0 mm 5 mps 755 mmHg 42%
    20:00 +18°C° 0 mm 4 mps 755 mmHg 49%
    21:00 +14°C° 0 mm 4 mps 756 mmHg 56%
    22:00 +12°C° 0 mm 3 mps 756 mmHg 64%
    23:00 +11°C° 0 mm 3 mps 756 mmHg 66%

    Tomorrow, 29 January, Wednesday

    Time Temperature Precipitation Wind Pressure Humidity
    00:00 +10°C° 0 mm 3 mps 756 mmHg 68%
    01:00 +10°C° 0 mm 2 mps 756 mmHg 70%
    02:00 +9°C° 0 mm 2 mps 756 mmHg 72%
    03:00 +9°C° 0 mm 3 mps 756 mmHg 74%
    04:00 +9°C° 0 mm 3 mps 756 mmHg 77%
    05:00 +11°C° 0 mm 3 mps 756 mmHg 68%
    06:00 +13°C° 0 mm 3 mps 756 mmHg 60%
    07:00 +16°C° 0 mm 3 mps 756 mmHg 51%
    08:00 +18°C° 0 mm 3 mps 756 mmHg 41%
    09:00 +21°C° 0 mm 3 mps 756 mmHg 31%
    10:00 +25°C° 0 mm 3 mps 756 mmHg 22%
    11:00 +27°C° 0 mm 3 mps 756 mmHg 19%
    12:00 +29°C° 0 mm 3 mps 756 mmHg 16%
    13:00 +31°C° 0 mm 3 mps 755 mmHg 13%
    14:00 +31°C° 0 mm 3 mps 755 mmHg 13%
    15:00 +32°C° 0 mm 4 mps 755 mmHg 13%
    16:00 +32°C° 0 mm 4 mps 755 mmHg 13%
    17:00 +28°C° 0 mm 3 mps 755 mmHg 20%
    18:00 +26°C° 0 mm 3 mps 756 mmHg 27%
    19:00 +22°C° 0 mm 3 mps 756 mmHg 33%
    20:00 +20°C° 0 mm 3 mps 756 mmHg 38%
    21:00 +18°C° 0 mm 3 mps 756 mmHg 43%
    22:00 +16°C° 0 mm 3 mps 756 mmHg 48%
    23:00 +14°C° 0 mm 3 mps 756 mmHg 52%

    Day after tomorrow, 30 January, Thursday

    Time Temperature Precipitation Wind Pressure Humidity
    00:00 +13°C° 0 mm 3 mps 756 mmHg 56%
    01:00 +13°C° 0 mm 2 mps 756 mmHg 59%
    02:00 +13°C° 0 mm 2 mps 756 mmHg 59%
    03:00 +12°C° 0 mm 2 mps 756 mmHg 59%
    04:00 +12°C° 0 mm 2 mps 755 mmHg 59%
    05:00 +13°C° 0 mm 2 mps 755 mmHg 52%
    06:00 +15°C° 0 mm 2 mps 756 mmHg 45%
    07:00 +17°C° 0 mm 2 mps 756 mmHg 39%
    08:00 +21°C° 0 mm 2 mps 755 mmHg 31%
    09:00 +26°C° 0 mm 2 mps 755 mmHg 22%
    10:00 +30°C° 0 mm 3 mps 755 mmHg 14%
    11:00 +31°C° 0 mm 3 mps 755 mmHg 12%
    12:00 +34°C° 0 mm 3 mps 754 mmHg 10%
    13:00 +36°C° 0 mm 3 mps 754 mmHg 8%
    14:00 +36°C° 0 mm 3 mps 754 mmHg 8%
    15:00 +36°C° 0 mm 3 mps 754 mmHg 9%
    16:00 +36°C° 0 mm 3 mps 753 mmHg 10%
    17:00 +33°C° 0 mm 3 mps 754 mmHg 16%
    18:00 +29°C° 0 mm 3 mps 754 mmHg 22%
    19:00 +26°C° 0 mm 3 mps 755 mmHg 28%
    20:00 +24°C° 0 mm 3 mps 755 mmHg 36%
    21:00 +21°C° 0 mm 3 mps 755 mmHg 44%
    22:00 +19°C° 0 mm 3 mps 755 mmHg 51%
    23:00 +18°C° 0 mm 3 mps 755 mmHg 58%

    31 January, Friday

    Time Temperature Precipitation Wind Pressure Humidity
    00:00 +17°C° 0 mm 2 mps 755 mmHg 64%
    01:00 +16°C° 0 mm 2 mps 754 mmHg 70%
    02:00 +15°C° 0 mm 2 mps 754 mmHg 73%
    03:00 +15°C° 0 mm 2 mps 754 mmHg 76%
    04:00 +15°C° 0 mm 2 mps 754 mmHg 79%
    05:00 +16°C° 0 mm 2 mps 754 mmHg 73%
    06:00 +18°C° 0 mm 2 mps 754 mmHg 66%
    07:00 +20°C° 0 mm 2 mps 755 mmHg 60%
    08:00 +25°C° 0 mm 2 mps 754 mmHg 50%
    09:00 +28°C° 0 mm 2 mps 754 mmHg 40%
    10:00 +33°C° 0 mm 3 mps 754 mmHg 30%
    11:00 +34°C° 0 mm 2 mps 754 mmHg 27%
    12:00 +36°C° 0 mm 2 mps 754 mmHg 23%
    13:00 +38°C° 0 mm 2 mps 753 mmHg 19%
    14:00 +38°C° 0 mm 2 mps 753 mmHg 19%
    15:00 +37°C° 0 mm 3 mps 753 mmHg 20%
    16:00 +37°C° 0 mm 3 mps 753 mmHg 21%
    17:00 +34°C° 0 mm 3 mps 753 mmHg 29%
    18:00 +30°C° 0 mm 2 mps 753 mmHg 37%
    19:00 +27°C° 0 mm 2 mps 753 mmHg 45%
    20:00 +24°C° 0 mm 2 mps 754 mmHg 55%
    21:00 +22°C° 0 mm 1 mps 754 mmHg 64%
    22:00 +19°C° 0 mm 1 mps 754 mmHg 73%
    23:00 +18°C° 0 mm 1 mps 754 mmHg 77%

    1 February, Saturday

    Time Temperature Precipitation Wind Pressure Humidity
    00:00 +15°C° 0 mm 0 mps 754 mmHg 81%
    01:00 +15°C° 0 mm 0 mps 754 mmHg 85%
    02:00 +14°C° 0 mm 0 mps 754 mmHg 87%
    03:00 +13°C° 0 mm 0 mps 753 mmHg 89%
    04:00 +13°C° 0 mm 0 mps 753 mmHg 91%
    05:00 +14°C° 0 mm 0 mps 754 mmHg 85%
    06:00 +16°C° 0 mm 0 mps 754 mmHg 80%
    07:00 +19°C° 0 mm 1 mps 754 mmHg 74%
    08:00 +22°C° 0 mm 1 mps 754 mmHg 63%
    09:00 +25°C° 0 mm 2 mps 753 mmHg 51%
    10:00 +28°C° 0 mm 2 mps 753 mmHg 40%
    11:00 +30°C° 0 mm 3 mps 753 mmHg 35%
    12:00 +32°C° 0 mm 4 mps 753 mmHg 31%
    13:00 +33°C° 0 mm 5 mps 753 mmHg 26%
    14:00 +32°C° 0 mm 5 mps 753 mmHg 32%
    15:00 +29°C° 0 mm 5 mps 753 mmHg 38%
    16:00 +28°C° 0 mm 5 mps 753 mmHg 44%
    17:00 +26°C° 0 mm 4 mps 754 mmHg 55%
    18:00 +22°C° 0 mm 3 mps 754 mmHg 67%
    19:00 +20°C° 0 mm 2 mps 755 mmHg 78%
    20:00 +19°C° 0 mm 2 mps 755 mmHg 81%
    21:00 +18°C° 0 mm 2 mps 755 mmHg 85%
    22:00 +17°C° 0 mm 2 mps 755 mmHg 88%
    23:00 +17°C° 0 mm 2 mps 755 mmHg 85%

    2 February, Sunday

    Time Temperature Precipitation Wind Pressure Humidity
    00:00 +16°C° 0 mm 2 mps 755 mmHg 83%
    01:00 +16°C° 0 mm 1 mps 755 mmHg 81%
    02:00 +15°C° 0 mm 1 mps 755 mmHg 84%
    03:00 +14°C° 0 mm 1 mps 755 mmHg 86%
    04:00 +13°C° 0 mm 1 mps 755 mmHg 89%
    05:00 +14°C° 0 mm 1 mps 755 mmHg 83%
    06:00 +16°C° 0 mm 1 mps 755 mmHg 76%
    07:00 +18°C° 0 mm 1 mps 755 mmHg 69%
    08:00 +21°C° 0 mm 1 mps 755 mmHg 58%
    09:00 +24°C° 0 mm 1 mps 755 mmHg 46%
    10:00 +27°C° 0 mm 1 mps 755 mmHg 34%
    11:00 +29°C° 0 mm 2 mps 754 mmHg 30%
    12:00 +30°C° 0 mm 3 mps 754 mmHg 27%
    13:00 +32°C° 0 mm 4 mps 754 mmHg 23%
    14:00 +30°C° 0 mm 4 mps 754 mmHg 23%
    15:00 +29°C° 0 mm 4 mps 754 mmHg 22%
    16:00 +28°C° 0 mm 4 mps 754 mmHg 22%
    17:00 +25°C° 0 mm 3 mps 755 mmHg 29%
    18:00 +21°C° 0 mm 2 mps 755 mmHg 36%
    19:00 +19°C° 0 mm 1 mps 756 mmHg 43%
    20:00 +16°C° 0 mm 1 mps 756 mmHg 51%
    21:00 +14°C° 0 mm 1 mps 757 mmHg 60%
    22:00 +11°C° 0 mm 1 mps 758 mmHg 69%
    23:00 +10°C° 0 mm 1 mps 757 mmHg 72%
    Show more